Glendale Luke AFB, AZ

5:09 AM MST on August 19, 2017 (GMT -0700)
Luke Air Force Base

Weather History for KLUF - November, 2012

Change the Weather History Date:

Wednesday, November 7, 2012

  Actual Average Record
Temperature  
Mean Temperature 71 °F -  
Max Temperature 88 °F 81 °F 93 °F (1934)
Min Temperature 54 °F 46 °F 28 °F (1918)
Cooling Degree Days 6    
Growing Degree Days 21 (Base 50)    
Moisture  
Dew Point 35 °F    
Average Humidity 32    
Maximum Humidity 48    
Minimum Humidity 13    
Precipitation  
Precipitation 0.00 in - - ()
Sea Level Pressure  
Sea Level Pressure 29.93 in    
Wind  
Wind Speed 4 mph (NNW)    
Max Wind Speed 7 mph    
Max Gust Speed -    
Visibility 8 miles    
Events      
Averages and records for this station are not official NWS values.
T = Trace of Precipitation, MM = Missing Value Source: NWS Daily Summary

Daily Weather History Graph

Daily Weather History Graph

Search for Another Location

Airport or City:

Trip Planner

Search our weather history database for the weather conditions in past years. The results will help you decide how hot, cold, wet, or windy it might be!

Date:

Astronomy

Nov. 07, 2012 Rise Set
Actual Time 6:54 AM MST 5:31 PM MST
Civil Twilight 6:28 AM MST 5:57 PM MST
Nautical Twilight 5:58 AM MST 6:27 PM MST
Astronomical Twilight 5:29 AM MST 6:56 PM MST
Moon 12:11 AM MST (11/7) 1:25 PM MST (11/7)
Length of Visible Light 11h 29m
Length of Day
10h 37m
Last Quarter, 42% of the Moon is Illuminated
Nov 7
Last Quarter
Nov 13
New
Nov 20
First Quarter
Nov 28
Full
Dec 6
Last Quarter

Hourly Weather History & Observations

Time (MST) Temp. Dew Point Humidity Pressure Visibility Wind Dir Wind Speed Gust Speed Precip Events Conditions
12:28 AM 62.6 °F 32.0 °F 32% 30.01 in 5.0 mi SW 2.3 mph - N/A   Haze
12:38 AM 62.6 °F 32.0 °F 32% 30.00 in 4.0 mi NNW 4.6 mph - N/A   Haze
12:58 AM 61.2 °F 32.9 °F 35% 29.98 in 3.0 mi North 4.6 mph - N/A   Haze
1:58 AM 59.0 °F 34.2 °F 39% 29.98 in 4.0 mi North 3.5 mph - N/A   Haze
2:58 AM 58.1 °F 31.6 °F 37% 29.98 in 3.0 mi North 6.9 mph - N/A   Haze
3:58 AM 55.6 °F 33.8 °F 44% 29.96 in 3.0 mi North 5.8 mph - N/A   Haze
3:59 AM 55.4 °F 33.8 °F 44% 29.96 in 10.0 mi North 4.6 mph - N/A   Clear
4:28 AM 55.4 °F 33.8 °F 44% 29.99 in 10.0 mi North 5.8 mph - N/A   Clear
4:58 AM 54.5 °F 34.7 °F 47% 29.98 in 10.0 mi NNW 4.6 mph - N/A   Clear
5:58 AM 54.7 °F 35.2 °F 48% 29.99 in 10.0 mi NNE 5.8 mph - N/A   Clear
6:58 AM 55.6 °F 34.0 °F 44% 29.99 in 10.0 mi North 6.9 mph - N/A   Clear
7:58 AM 58.8 °F 35.6 °F 42% 30.01 in 10.0 mi Calm Calm - N/A   Clear
8:58 AM 64.9 °F 39.9 °F 40% 30.02 in 10.0 mi Calm Calm - N/A   Clear
9:58 AM 73.8 °F 37.0 °F 26% 30.01 in 10.0 mi South 2.3 mph - N/A   Clear
10:58 AM 75.9 °F 33.3 °F 21% 30.00 in 10.0 mi Variable 1.2 mph - N/A   Clear
11:58 AM 79.7 °F 33.1 °F 18% 29.97 in 10.0 mi Calm Calm - N/A   Clear
12:58 PM 83.7 °F 33.4 °F 16% 29.91 in 10.0 mi NE 2.3 mph - N/A   Clear
1:58 PM 85.8 °F 33.6 °F 15% 29.88 in 10.0 mi Calm Calm - N/A   Clear
2:58 PM 88.2 °F 32.0 °F 13% 29.86 in 10.0 mi West 2.3 mph - N/A   Clear
3:58 PM 87.8 °F 31.6 °F 13% 29.86 in 10.0 mi SSW 4.6 mph - N/A   Clear
4:58 PM 86.5 °F 31.8 °F 14% 29.85 in 10.0 mi SSW 4.6 mph - N/A   Clear
5:58 PM 80.6 °F 34.0 °F 19% 29.86 in 10.0 mi South 5.8 mph - N/A   Clear
6:58 PM 75.7 °F 36.9 °F 24% 29.86 in 7.0 mi SSW 2.3 mph - N/A   Clear
7:58 PM 71.1 °F 35.6 °F 27% 29.87 in 10.0 mi WSW 3.5 mph - N/A   Clear
8:58 PM 65.1 °F 38.7 °F 38% 29.87 in 10.0 mi Calm Calm - N/A   Clear
9:58 PM 64.2 °F 35.6 °F 35% 29.87 in 10.0 mi NNE 4.6 mph - N/A   Clear
10:08 PM 62.6 °F 39.2 °F 42% 29.89 in 10.0 mi North 3.5 mph - N/A   Clear
10:58 PM 61.3 °F 35.8 °F 39% 29.87 in 4.0 mi NNE 4.6 mph - N/A   Haze
11:18 PM 62.6 °F 35.6 °F 37% 29.89 in 5.0 mi Calm Calm - N/A   Haze
11:58 PM 60.3 °F 36.3 °F 41% 29.87 in 5.0 mi North 3.5 mph - N/A   Haze